{"data":{"norad_id":53008,"intl_designator":"2022-076Y","name":"STARLINK-4275","alt_names":[],"object_type":"PAYLOAD","status":"ACTIVE","operator":null,"country":"US","launch_date":"2022-07-07","launch_site_code":"AFETR","launch_vehicle":null,"mission":null,"orbit_class":"UNKNOWN","rcs_meters":null,"size_class":null,"mass_kg":null,"dimensions":null,"purposes":["comms"],"wikipedia_slug":null,"has_3d_model":false,"image_url":null,"decayed_at":null,"tle_current":{"epoch":"2026-05-25T03:55:30.249120Z","epoch_age_seconds":58051,"freshness":"FRESH","line1":"1 53008U 22076Y   26145.16354455  .00000367  00000+0  41115-4 0  9995","line2":"2 53008  53.2136 110.8078 0001110  70.8007 289.3105 15.08841352214392","mean_motion":15.08841352,"eccentricity":0.000111,"inclination_deg":53.2136,"raan_deg":110.8078,"arg_perigee_deg":70.8007,"mean_anomaly_deg":289.3105,"bstar":4.1115e-5,"rev_number":21439,"period_min":95.437469160774,"perigee_km":538.9713721796,"apogee_km":540.50714070853,"semimajor_km":6917.8762564441,"source":"CELESTRAK","updated_at":"2026-05-25T13:38:17.278068Z"}}}